Location: Unspecified
(47.9110°N, 14.3980°E)
Time: 06:34:33
(UTC+00:00)

USA 234 - Pass Details

Date: 06 August 2020
Orbit: 1101 x 1107 km, 123.0° (Epoch: 22 September)

Event Time Altitude Azimuth Distance (km) Brightness Sun altitude
Exits shadow 20:00:22 18° 130° (SE) 2,435 4.4 -13.3°
Maximum altitude 20:05:32 80° 217° (SW) 1,121 3.3 -13.9°
Drops below altitude 10° 20:12:07 10° 305° (NW) 2,967 6.9 -14.7°
Sets 20:14:36 0° 306° (NW) 3,928 7.9 -14.9°
